^^
Station Historical Data
Daily Summary for October 13, 2017 Units:  Metric    English   Both
« Previous Day
Next Day »
Daily Weekly Monthly Yearly Custom
  High: Low: Average:
Temperature: 16.7 °C 1.3 °C 9.1 °C
Dew Point: 7 °C -0.3 °C 3.7 °C
Humidity: 91% 49% 71%
Wind Speed: 18.5km/h 0km/h 2.9km/h
Wind Gust: 18.5km/h - -
Wind- - SSE
Pressure: 1018.2 hPa 1009 hPa -
Precipitation: 0 mm    
Historical Graphs
 
 
Tabular Data for October 13, 2017
Time Temperature Dew Point Pressure Wind Wind Speed Wind Gust Humidity Rainfall Rate (Hourly) solar Conditions
00:02 7.3 °C 1.3 °C 1012.4 hPa Calm     66% 0 mm WeatherDisplay:10.37 W/m2 CLR
00:07 7.2 °C 1.7 °C 1012.4 hPa Calm     68% 0 mm WeatherDisplay:10.37 W/m2 CLR
00:12 7 °C 1.5 °C 1012.4 hPa Calm     68% 0 mm WeatherDisplay:10.37 W/m2 CLR
00:17 6.8 °C 1.5 °C 1012.8 hPa Calm     69% 0 mm WeatherDisplay:10.37 W/m2 CLR
00:22 6.6 °C 1.4 °C 1012.8 hPa Calm     70% 0 mm WeatherDisplay:10.37 W/m2 CLR
00:27 6.4 °C 1.5 °C 1012.8 hPa Calm     71% 0 mm WeatherDisplay:10.37 W/m2 CLR
00:32 6.2 °C 1.5 °C 1012.8 hPa Calm     72% 0 mm WeatherDisplay:10.37 W/m2 CLR
00:37 5.9 °C 1.3 °C 1012.8 hPa Calm     72% 0 mm WeatherDisplay:10.37 W/m2 CLR
00:42 5.8 °C 1.3 °C 1012.8 hPa Calm     73% 0 mm WeatherDisplay:10.37 W/m2 CLR
00:47 5.7 °C 1.2 °C 1013.1 hPa Calm     73% 0 mm WeatherDisplay:10.37 W/m2 CLR
00:52 5.4 °C 1.2 °C 1013.1 hPa Calm     74% 0 mm WeatherDisplay:10.37 W/m2 CLR
00:57 5.3 °C 1.2 °C 1013.1 hPa Calm     75% 0 mm WeatherDisplay:10.37 W/m2 CLR
01:02 5.1 °C 1.2 °C 1012.4 hPa Calm     76% 0 mm WeatherDisplay:10.37 W/m2 CLR
01:07 5 °C 1.3 °C 1012.4 hPa Calm     77% 0 mm WeatherDisplay:10.37 W/m2 CLR
01:12 4.8 °C 1.3 °C 1012.4 hPa Calm     78% 0 mm WeatherDisplay:10.37 W/m2 CLR
01:17 4.7 °C 1.6 °C 1012.4 hPa Calm     80% 0 mm WeatherDisplay:10.37 W/m2 CLR
01:22 4.7 °C 1.5 °C 1013.1 hPa Calm     80% 0 mm WeatherDisplay:10.37 W/m2 CLR
01:27 4.6 °C 1.4 °C 1013.1 hPa Calm     80% 0 mm WeatherDisplay:10.37 W/m2 CLR
01:32 4.5 °C 1.5 °C 1013.1 hPa Calm     81% 0 mm WeatherDisplay:10.37 W/m2 CLR
01:37 4.3 °C 1.2 °C 1013.1 hPa Calm     80% 0 mm WeatherDisplay:10.37 W/m2 CLR
01:42 4.3 °C 1.3 °C 1013.1 hPa Calm     81% 0 mm WeatherDisplay:10.37 W/m2 CLR
01:47 4.2 °C 1.4 °C 1013.1 hPa Calm     82% 0 mm WeatherDisplay:10.37 W/m2 CLR
01:52 4.1 °C 1.5 °C 1013.1 hPa Calm     83% 0 mm WeatherDisplay:10.37 W/m2 CLR
01:57 4.1 °C 1.4 °C 1013.1 hPa Calm     83% 0 mm WeatherDisplay:10.37 W/m2 CLR
02:02 4 °C 1.4 °C 1013.1 hPa Calm     83% 0 mm WeatherDisplay:10.37 W/m2 CLR
02:07 3.9 °C 1.4 °C 1013.1 hPa Calm     84% 0 mm WeatherDisplay:10.37 W/m2 CLR
02:12 3.8 °C 1 °C 1013.1 hPa Calm     82% 0 mm WeatherDisplay:10.37 W/m2 CLR
02:17 3.7 °C 1.1 °C 1013.1 hPa Calm     83% 0 mm WeatherDisplay:10.37 W/m2 CLR
02:22 3.7 °C 1.1 °C 1013.1 hPa Calm     83% 0 mm WeatherDisplay:10.37 W/m2 CLR
02:27 3.7 °C 1.2 °C 1013.1 hPa Calm     84% 0 mm WeatherDisplay:10.37 W/m2 CLR
02:32 3.7 °C 1.2 °C 1013.1 hPa Calm     84% 0 mm WeatherDisplay:10.37 W/m2 CLR
02:37 3.6 °C 1.1 °C 1013.4 hPa Calm     84% 0 mm WeatherDisplay:10.37 W/m2 CLR
02:42 3.6 °C 1.1 °C 1013.4 hPa Calm     84% 0 mm WeatherDisplay:10.37 W/m2 CLR
02:47 3.6 °C 1.3 °C 1013.4 hPa Calm     85% 0 mm WeatherDisplay:10.37 W/m2 CLR
02:52 3.6 °C 1.3 °C 1013.4 hPa Calm     85% 0 mm WeatherDisplay:10.37 W/m2 CLR
02:57 3.6 °C 1.1 °C 1013.1 hPa Calm     84% 0 mm WeatherDisplay:10.37 W/m2 CLR
03:02 3.6 °C 1.1 °C 1013.4 hPa Calm     84% 0 mm WeatherDisplay:10.37 W/m2 CLR
03:07 3.5 °C 1.1 °C 1013.4 hPa Calm     84% 0 mm WeatherDisplay:10.37 W/m2 CLR
03:12 3.5 °C 1.1 °C 1013.4 hPa Calm     84% 0 mm WeatherDisplay:10.37 W/m2 CLR
03:17 3.4 °C 0.8 °C 1013.4 hPa Calm     83% 0 mm WeatherDisplay:10.37 W/m2 CLR
03:22 3.3 °C 0.7 °C 1013.4 hPa Calm     83% 0 mm WeatherDisplay:10.37 W/m2 CLR
03:27 3.2 °C 0.6 °C 1013.4 hPa Calm     83% 0 mm WeatherDisplay:10.37 W/m2 CLR
03:32 3.1 °C 0.4 °C 1013.4 hPa Calm     83% 0 mm WeatherDisplay:10.37 W/m2 CLR
03:37 2.9 °C 0.3 °C 1013.4 hPa Calm     83% 0 mm WeatherDisplay:10.37 W/m2 CLR
03:42 2.8 °C 0.4 °C 1013.4 hPa Calm     84% 0 mm WeatherDisplay:10.37 W/m2 CLR
03:47 2.9 °C 0.6 °C 1013.4 hPa Calm     85% 0 mm WeatherDisplay:10.37 W/m2 CLR
03:52 2.9 °C 0.7 °C 1013.4 hPa Calm     85% 0 mm WeatherDisplay:10.37 W/m2 CLR
03:57 2.8 °C 0.4 °C 1013.4 hPa Calm     84% 0 mm WeatherDisplay:10.37 W/m2 CLR
04:02 2.8 °C 0.3 °C 1013.4 hPa Calm     84% 0 mm WeatherDisplay:10.37 W/m2 CLR
04:07 2.7 °C 0.3 °C 1013.8 hPa Calm     84% 0 mm WeatherDisplay:10.37 W/m2 CLR
04:12 2.7 °C 0.2 °C 1013.8 hPa Calm     84% 0 mm WeatherDisplay:10.37 W/m2 CLR
04:17 2.6 °C 0.2 °C 1013.8 hPa Calm     84% 0 mm WeatherDisplay:10.37 W/m2 CLR
04:27 2.4 °C 0.2 °C 1014.4 hPa Calm     85% 0 mm WeatherDisplay:10.37 W/m2 CLR
04:32 2.4 °C 0.1 °C 1014.4 hPa Calm     85% 0 mm WeatherDisplay:10.37 W/m2 CLR
04:37 2.3 °C 0.1 °C 1014.4 hPa Calm     85% 0 mm WeatherDisplay:10.37 W/m2 CLR
04:42 2.3 °C 0.2 °C 1014.4 hPa Calm     86% 0 mm WeatherDisplay:10.37 W/m2 CLR
04:47 2.3 °C 0.3 °C 1014.4 hPa Calm     87% 0 mm WeatherDisplay:10.37 W/m2 CLR
04:52 2.3 °C 0.3 °C 1014.4 hPa Calm     87% 0 mm WeatherDisplay:10.37 W/m2 CLR
04:57 2.2 °C 0.3 °C 1014.4 hPa Calm     87% 0 mm WeatherDisplay:10.37 W/m2 CLR
05:02 2.2 °C 0.2 °C 1015.8 hPa Calm     87% 0 mm WeatherDisplay:10.37 W/m2 CLR
05:07 2.1 °C 0.2 °C 1015.8 hPa Calm     87% 0 mm WeatherDisplay:10.37 W/m2 CLR
05:12 2.1 °C 0.3 °C 1015.8 hPa Calm     88% 0 mm WeatherDisplay:10.37 W/m2 CLR
05:17 2.1 °C 0.3 °C 1015.8 hPa Calm     88% 0 mm WeatherDisplay:10.37 W/m2 CLR
05:22 2.2 °C 0.4 °C 1015.8 hPa Calm     88% 0 mm WeatherDisplay:10.37 W/m2 CLR
05:27 2.1 °C 0.5 °C 1015.8 hPa Calm     89% 0 mm WeatherDisplay:10.37 W/m2 CLR
05:32 2.1 °C 0.3 °C 1015.8 hPa Calm     88% 0 mm WeatherDisplay:10.37 W/m2 CLR
05:37 2.1 °C 0.3 °C 1015.8 hPa Calm     88% 0 mm WeatherDisplay:10.37 W/m2 CLR
05:42 2 °C 0.4 °C 1016.1 hPa Calm     89% 0 mm WeatherDisplay:10.37 W/m2 CLR
05:47 1.9 °C 0.3 °C 1015.8 hPa Calm     89% 0 mm WeatherDisplay:10.37 W/m2 CLR
05:52 1.9 °C 0.3 °C 1015.8 hPa Calm     89% 0 mm WeatherDisplay:10.37 W/m2 CLR
05:57 1.9 °C 0.3 °C 1016.1 hPa Calm     89% 0 mm WeatherDisplay:10.37 W/m2 CLR
06:02 1.8 °C 0.2 °C 1016.8 hPa Calm     89% 0 mm WeatherDisplay:10.37 W/m2 CLR
06:07 1.8 °C 0.2 °C 1016.8 hPa Calm     89% 0 mm WeatherDisplay:10.37 W/m2 CLR
06:13 1.8 °C 0.2 °C 1017.2 hPa Calm     89% 0 mm WeatherDisplay:10.37 W/m2 CLR
06:17 1.9 °C 0.4 °C 1016.8 hPa Calm     90% 0 mm WeatherDisplay:10.37 W/m2 CLR
06:23 1.9 °C 0.3 °C 1016.8 hPa Calm     89% 0 mm WeatherDisplay:10.37 W/m2 CLR
06:28 1.8 °C 0.2 °C 1017.2 hPa Calm     89% 0 mm WeatherDisplay:10.37 W/m2 CLR
06:33 1.8 °C 0.2 °C 1017.2 hPa Calm     89% 0 mm WeatherDisplay:10.37 W/m2 CLR
06:38 1.7 °C 0.1 °C 1017.2 hPa Calm     89% 0 mm WeatherDisplay:10.37 W/m2 CLR
06:43 1.7 °C 0.1 °C 1017.2 hPa Calm     89% 0 mm WeatherDisplay:10.37 W/m2 CLR
06:48 1.6 °C -0.1 °C 1017.2 hPa Calm     89% 0 mm WeatherDisplay:10.37 W/m2 CLR
06:53 1.5 °C -0.1 °C 1017.5 hPa Calm     89% 0 mm WeatherDisplay:10.37 W/m2 CLR
06:58 1.4 °C -0.2 °C 1017.5 hPa Calm     89% 0 mm WeatherDisplay:10.37 W/m2 CLR
07:03 1.4 °C -0.2 °C 1018.2 hPa Calm     89% 0 mm WeatherDisplay:10.37 W/m2 CLR
07:08 1.3 °C -0.3 °C 1017.8 hPa Calm     89% 0 mm WeatherDisplay:10.37 W/m2 CLR
07:13 1.3 °C -0.3 °C 1017.8 hPa Calm     89% 0 mm WeatherDisplay:10.37 W/m2 CLR
07:18 1.3 °C -0.1 °C 1017.8 hPa Calm     90% 0 mm WeatherDisplay:10.37 W/m2 CLR
07:23 1.3 °C -0.1 °C 1017.8 hPa Calm     90% 0 mm WeatherDisplay:10.37 W/m2 CLR
07:28 1.5 °C 0.1 °C 1017.8 hPa Calm     90% 0 mm WeatherDisplay:10.37 W/m2 CLR
07:33 1.6 °C 0.1 °C 1017.8 hPa Calm     90% 0 mm WeatherDisplay:10.37 W/m2 CLR
07:38 1.7 °C 0.3 °C 1017.8 hPa Calm     91% 0 mm WeatherDisplay:10.37 W/m2 CLR
07:43 1.9 °C 0.6 °C 1017.5 hPa Calm     91% 0 mm WeatherDisplay:10.37 W/m2 CLR
07:48 2.2 °C 0.8 °C 1017.5 hPa Calm     91% 0 mm WeatherDisplay:10.37 W/m2 CLR
07:53 2.5 °C 1.2 °C 1017.5 hPa Calm     91% 0 mm WeatherDisplay:10.37 W/m2 CLR
07:58 2.8 °C 1.4 °C 1017.5 hPa Calm     91% 0 mm WeatherDisplay:10.37 W/m2 CLR
08:03 3.2 °C 1.8 °C 1017.2 hPa NNW 1.9 km/h 1.9 km/h 91% 0 mm WeatherDisplay:10.37 W/m2 CLR
08:08 3.6 °C 2.2 °C 1017.5 hPa Calm     91% 0 mm WeatherDisplay:10.37 W/m2 CLR
08:13 4 °C 2.3 °C 1017.2 hPa NW 3.7 km/h 3.7 km/h 89% 0 mm WeatherDisplay:10.37 W/m2 CLR
08:18 4.3 °C 2.2 °C 1016.8 hPa WNW 3.7 km/h 3.7 km/h 86% 0 mm WeatherDisplay:10.37 W/m2 CLR
08:23 4.6 °C 2.4 °C 1016.8 hPa West 5.6 km/h 5.6 km/h 86% 0 mm WeatherDisplay:10.37 W/m2 CLR
08:28 5.1 °C 2.7 °C 1016.8 hPa Calm     85% 0 mm WeatherDisplay:10.37 W/m2 CLR
08:33 5.5 °C 2.8 °C 1016.5 hPa West 1.9 km/h 1.9 km/h 83% 0 mm WeatherDisplay:10.37 W/m2 CLR
08:38 6 °C 3 °C 1016.5 hPa West 1.9 km/h   81% 0 mm WeatherDisplay:10.37 W/m2 CLR
08:43 6.4 °C 3.1 °C 1016.5 hPa Calm     79% 0 mm WeatherDisplay:10.37 W/m2 CLR
08:48 6.9 °C 3.7 °C 1016.5 hPa Calm     80% 0 mm WeatherDisplay:10.37 W/m2 CLR
08:58 7.8 °C 3.6 °C 1016.1 hPa WNW 1.9 km/h   75% 0 mm WeatherDisplay:10.37 W/m2 CLR
09:03 8.1 °C 3.7 °C 1016.8 hPa WNW 1.9 km/h 1.9 km/h 74% 0 mm WeatherDisplay:10.37 W/m2 CLR
09:08 8.3 °C 3.4 °C 1016.5 hPa North 3.2 km/h 3.2 km/h 71% 0 mm WeatherDisplay:10.37 W/m2 CLR
09:13 8.4 °C 3.6 °C 1016.5 hPa North 1.9 km/h 1.9 km/h 72% 0 mm WeatherDisplay:10.37 W/m2 CLR
09:18 8.3 °C 3.4 °C 1016.5 hPa North 1.9 km/h 1.9 km/h 71% 0 mm WeatherDisplay:10.37 W/m2 CLR
09:23 8.3 °C 3.5 °C 1016.5 hPa North 1.9 km/h 1.9 km/h 72% 0 mm WeatherDisplay:10.37 W/m2 CLR
09:28 8.3 °C 3.4 °C 1016.5 hPa North 3.7 km/h 3.7 km/h 71% 0 mm WeatherDisplay:10.37 W/m2 CLR
09:33 8.4 °C 3.7 °C 1016.1 hPa North 3.7 km/h 3.7 km/h 72% 0 mm WeatherDisplay:10.37 W/m2 CLR
09:38 8.5 °C 3.7 °C 1016.1 hPa North 5.6 km/h 5.6 km/h 72% 0 mm WeatherDisplay:10.37 W/m2 CLR
09:43 8.6 °C 3.8 °C 1016.5 hPa North 1.9 km/h 1.9 km/h 72% 0 mm WeatherDisplay:10.37 W/m2 CLR
09:48 8.7 °C 3.8 °C 1016.1 hPa North 1.9 km/h 1.9 km/h 71% 0 mm WeatherDisplay:10.37 W/m2 CLR
09:53 8.9 °C 3.9 °C 1016.1 hPa North 1.9 km/h 1.9 km/h 71% 0 mm WeatherDisplay:10.37 W/m2 CLR
09:58 9.2 °C 3.8 °C 1015.8 hPa NE 5.6 km/h 5.6 km/h 69% 0 mm WeatherDisplay:10.37 W/m2 CLR
10:03 9.3 °C 3.7 °C 1016.8 hPa ENE 1.9 km/h 1.9 km/h 68% 0 mm WeatherDisplay:10.37 W/m2 CLR
10:08 9.6 °C 4.2 °C 1016.8 hPa East 1.9 km/h   69% 0 mm WeatherDisplay:10.37 W/m2 CLR
10:13 10.1 °C 3.8 °C 1016.5 hPa East 5.6 km/h 5.6 km/h 65% 0 mm WeatherDisplay:10.37 W/m2 CLR
10:18 10.3 °C 4.3 °C 1016.5 hPa East 5.6 km/h 5.6 km/h 66% 0 mm WeatherDisplay:10.37 W/m2 CLR
10:23 10.4 °C 4.1 °C 1016.1 hPa East 9.3 km/h 9.3 km/h 65% 0 mm WeatherDisplay:10.37 W/m2 CLR
10:28 10.5 °C 3.9 °C 1016.1 hPa East 3.7 km/h 3.7 km/h 64% 0 mm WeatherDisplay:10.37 W/m2 CLR
10:33 10.7 °C 3.9 °C 1016.1 hPa East 5.6 km/h 5.6 km/h 63% 0 mm WeatherDisplay:10.37 W/m2 CLR
10:38 10.8 °C 3.8 °C 1016.1 hPa SSE 9.3 km/h 9.3 km/h 62% 0 mm WeatherDisplay:10.37 W/m2 CLR
10:43 10.8 °C 4.1 °C 1015.8 hPa South 6.4 km/h 6.4 km/h 63% 0 mm WeatherDisplay:10.37 W/m2 CLR
10:48 11.1 °C 4.3 °C 1015.8 hPa SSE 4.8 km/h 4.8 km/h 63% 0 mm WeatherDisplay:10.37 W/m2 CLR
10:53 11.2 °C 3.9 °C 1015.5 hPa SSE 6.4 km/h 6.8 km/h 61% 0 mm WeatherDisplay:10.37 W/m2 CLR
10:58 11.2 °C 3.7 °C 1015.5 hPa SSE 7.4 km/h 7.4 km/h 60% 0 mm WeatherDisplay:10.37 W/m2 CLR
11:03 11.2 °C 3.9 °C 1016.1 hPa ESE 9.7 km/h 9.7 km/h 61% 0 mm WeatherDisplay:10.37 W/m2 CLR
11:08 11.2 °C 3.9 °C 1016.1 hPa ESE 9.3 km/h 9.3 km/h 61% 0 mm WeatherDisplay:10.37 W/m2 CLR
11:13 11.2 °C 3.4 °C 1015.8 hPa ESE 1.9 km/h   59% 0 mm WeatherDisplay:10.37 W/m2 CLR
11:18 11.3 °C 3.3 °C 1015.8 hPa ESE 9.3 km/h 9.3 km/h 58% 0 mm WeatherDisplay:10.37 W/m2 CLR
11:23 11.6 °C 3.3 °C 1015.5 hPa South 6.4 km/h 6.4 km/h 57% 0 mm WeatherDisplay:10.37 W/m2 CLR
11:28 11.8 °C 4 °C 1015.1 hPa SSE 6.4 km/h 6.4 km/h 59% 0 mm WeatherDisplay:10.37 W/m2 CLR
11:33 12.2 °C 4.4 °C 1015.1 hPa SSE 11.3 km/h 11.3 km/h 59% 0 mm WeatherDisplay:10.37 W/m2 CLR
11:38 12.4 °C 4.2 °C 1015.1 hPa SE 11.3 km/h 11.3 km/h 57% 0 mm WeatherDisplay:10.37 W/m2 CLR
11:43 12.5 °C 3.7 °C 1014.8 hPa SSE 11.1 km/h 11.1 km/h 55% 0 mm WeatherDisplay:10.37 W/m2 CLR
11:48 12.5 °C 4.2 °C 1014.4 hPa South 9.3 km/h 9.3 km/h 57% 0 mm WeatherDisplay:10.37 W/m2 CLR
11:53 12.7 °C 4.1 °C 1014.4 hPa SE 9.7 km/h 9.7 km/h 56% 0 mm WeatherDisplay:10.37 W/m2 CLR
11:58 12.8 °C 3.9 °C 1014.4 hPa SSE 7.4 km/h 7.4 km/h 55% 0 mm WeatherDisplay:10.37 W/m2 CLR
12:03 12.9 °C 4.4 °C 1014.8 hPa SE 3.7 km/h 3.7 km/h 56% 0 mm WeatherDisplay:10.37 W/m2 CLR
12:08 13.1 °C 4.2 °C 1014.8 hPa South 11.1 km/h 11.1 km/h 55% 0 mm WeatherDisplay:10.37 W/m2 CLR
12:13 13.1 °C 4.4 °C 1014.8 hPa SSE 14.8 km/h 14.8 km/h 56% 0 mm WeatherDisplay:10.37 W/m2 CLR
12:18 13.3 °C 4.9 °C 1014.4 hPa South 11.1 km/h 11.1 km/h 57% 0 mm WeatherDisplay:10.37 W/m2 CLR
12:23 13.4 °C 4.6 °C 1014.1 hPa South 9.3 km/h 9.3 km/h 55% 0 mm WeatherDisplay:10.37 W/m2 CLR
12:28 13.4 °C 4.8 °C 1014.4 hPa SE 11.1 km/h 11.1 km/h 56% 0 mm WeatherDisplay:10.37 W/m2 CLR
12:33 13.3 °C 4.5 °C 1014.4 hPa SE 16.7 km/h 16.7 km/h 55% 0 mm WeatherDisplay:10.37 W/m2 CLR
12:38 13.4 °C 5.1 °C 1014.1 hPa ESE 11.1 km/h 11.1 km/h 57% 0 mm WeatherDisplay:10.37 W/m2 CLR
12:43 13.4 °C 4.8 °C 1014.1 hPa SE 14.8 km/h 14.8 km/h 56% 0 mm WeatherDisplay:10.37 W/m2 CLR
12:48 13.6 °C 4.7 °C 1013.8 hPa SSE 9.3 km/h 9.3 km/h 55% 0 mm WeatherDisplay:10.37 W/m2 CLR
12:53 13.8 °C 4.7 °C 1013.4 hPa SSE 5.6 km/h 5.6 km/h 54% 0 mm WeatherDisplay:10.37 W/m2 CLR
12:54 13.8 °C 4.7 °C 1013.4 hPa SSE 5.6 km/h 5.6 km/h 54% 0 mm WeatherDisplay:10.37 W/m2 CLR
12:59 13.9 °C 5.1 °C 1013.1 hPa ESE 11.1 km/h 11.1 km/h 55% 0 mm WeatherDisplay:10.37 W/m2 CLR
13:04 13.9 °C 5.3 °C 1013.4 hPa SE 11.1 km/h 11.1 km/h 56% 0 mm WeatherDisplay:10.37 W/m2 CLR
13:09 14.1 °C 5.7 °C 1013.1 hPa ESE 9.3 km/h 9.3 km/h 57% 0 mm WeatherDisplay:10.37 W/m2 CLR
13:14 14.2 °C 5.5 °C 1013.1 hPa SE 11.3 km/h 11.3 km/h 56% 0 mm WeatherDisplay:10.37 W/m2 CLR
13:19 14.3 °C 5.4 °C 1013.1 hPa SSE 18.5 km/h 18.5 km/h 55% 0 mm WeatherDisplay:10.37 W/m2 CLR
13:24 14.4 °C 5.8 °C 1013.1 hPa SE 9.7 km/h 9.7 km/h 56% 0 mm WeatherDisplay:10.37 W/m2 CLR
13:29 14.5 °C 5.6 °C 1013.1 hPa SSW 11.1 km/h 11.1 km/h 55% 0 mm WeatherDisplay:10.37 W/m2 CLR
13:34 14.8 °C 5.8 °C 1012.4 hPa South 9.3 km/h 9.3 km/h 55% 0 mm WeatherDisplay:10.37 W/m2 CLR
13:39 15 °C 5.8 °C 1012.4 hPa SSE 16.7 km/h 16.7 km/h 54% 0 mm WeatherDisplay:10.37 W/m2 CLR
13:44 15.1 °C 6.1 °C 1012.1 hPa East 9.3 km/h 9.3 km/h 55% 0 mm WeatherDisplay:10.37 W/m2 CLR
13:49 15 °C 5.8 °C 1012.1 hPa SSE 13 km/h 13 km/h 54% 0 mm WeatherDisplay:10.37 W/m2 CLR
13:54 15.1 °C 6.3 °C 1012.1 hPa SE 8 km/h 8 km/h 56% 0 mm WeatherDisplay:10.37 W/m2 CLR
13:59 15.3 °C 6 °C 1012.1 hPa SE 11.1 km/h 11.1 km/h 54% 0 mm WeatherDisplay:10.37 W/m2 CLR
14:04 15.2 °C 5.9 °C 1012.1 hPa ESE 11.1 km/h 11.1 km/h 54% 0 mm WeatherDisplay:10.37 W/m2 CLR
14:09 15.3 °C 6.6 °C 1012.1 hPa ESE 9.3 km/h 9.3 km/h 56% 0 mm WeatherDisplay:10.37 W/m2 CLR
14:14 15.6 °C 6.3 °C 1011.7 hPa ESE 11.1 km/h 11.1 km/h 54% 0 mm WeatherDisplay:10.37 W/m2 CLR
14:19 15.6 °C 6.1 °C 1011.7 hPa SSE 7.4 km/h 7.4 km/h 53% 0 mm WeatherDisplay:10.37 W/m2 CLR
14:24 15.8 °C 6.2 °C 1011.7 hPa SE 16.1 km/h 16.1 km/h 53% 0 mm WeatherDisplay:10.37 W/m2 CLR
14:29 15.8 °C 7 °C 1011.7 hPa South 8 km/h 8 km/h 56% 0 mm WeatherDisplay:10.37 W/m2 CLR
14:34 15.8 °C 5.9 °C 1011.4 hPa ENE 9.3 km/h 9.3 km/h 52% 0 mm WeatherDisplay:10.37 W/m2 CLR
14:39 15.8 °C 6.6 °C 1011.4 hPa ESE 13 km/h 13 km/h 54% 0 mm WeatherDisplay:10.37 W/m2 CLR
14:44 15.8 °C 5.7 °C 1011.4 hPa South 7.4 km/h 7.4 km/h 51% 0 mm WeatherDisplay:10.37 W/m2 CLR
14:49 15.9 °C 5.8 °C 1011.4 hPa SE 7.4 km/h 7.4 km/h 51% 0 mm WeatherDisplay:10.37 W/m2 CLR
14:54 15.9 °C 5.8 °C 1011.1 hPa ESE 16.7 km/h 16.7 km/h 51% 0 mm WeatherDisplay:10.37 W/m2 CLR
14:59 15.9 °C 6.1 °C 1011.1 hPa South 5.6 km/h 5.6 km/h 52% 0 mm WeatherDisplay:10.37 W/m2 CLR
15:04 16.2 °C 6.3 °C 1010.7 hPa East 5.6 km/h 5.6 km/h 52% 0 mm WeatherDisplay:10.37 W/m2 CLR
15:09 16.3 °C 6.4 °C 1010.7 hPa ESE 11.1 km/h 11.1 km/h 52% 0 mm WeatherDisplay:10.37 W/m2 CLR
15:14 16.4 °C 5.9 °C 1011.1 hPa East 8 km/h 8 km/h 50% 0 mm WeatherDisplay:10.37 W/m2 CLR
15:19 16.3 °C 6.2 °C 1010.7 hPa ESE 14.8 km/h 14.8 km/h 51% 0 mm WeatherDisplay:10.37 W/m2 CLR
15:24 16.3 °C 6.1 °C 1010.7 hPa SSE 5.6 km/h 5.6 km/h 51% 0 mm WeatherDisplay:10.37 W/m2 CLR
15:29 16.3 °C 6.4 °C 1010.7 hPa East 11.1 km/h 11.1 km/h 52% 0 mm WeatherDisplay:10.37 W/m2 CLR
15:34 16.3 °C 5.6 °C 1010.7 hPa East 5.6 km/h 5.6 km/h 49% 0 mm WeatherDisplay:10.37 W/m2 CLR
15:39 16.3 °C 5.6 °C 1010.7 hPa SE 5.6 km/h 5.6 km/h 49% 0 mm WeatherDisplay:10.37 W/m2 CLR
15:44 16.5 °C 6.9 °C 1010.7 hPa ESE 4.8 km/h 4.8 km/h 53% 0 mm WeatherDisplay:10.37 W/m2 CLR
15:49 16.6 °C 6.7 °C 1010.7 hPa ENE 9.3 km/h 9.3 km/h 52% 0 mm WeatherDisplay:10.37 W/m2 CLR
15:54 16.6 °C 6.4 °C 1010.7 hPa East 5.6 km/h 5.6 km/h 51% 0 mm WeatherDisplay:10.37 W/m2 CLR
15:59 16.6 °C 6.1 °C 1010.7 hPa ESE 9.3 km/h 9.3 km/h 50% 0 mm WeatherDisplay:10.37 W/m2 CLR
16:04 16.6 °C 6.1 °C 1010.7 hPa East 8 km/h 8 km/h 50% 0 mm WeatherDisplay:10.37 W/m2 CLR
16:09 16.7 °C 6.5 °C 1010.7 hPa ESE 9.3 km/h 9.3 km/h 51% 0 mm WeatherDisplay:10.37 W/m2 CLR
16:14 16.7 °C 6.5 °C 1010.7 hPa SSE 8 km/h 8 km/h 51% 0 mm WeatherDisplay:10.37 W/m2 CLR
16:19 16.7 °C 6.2 °C 1010.7 hPa SSE 5.6 km/h 5.6 km/h 50% 0 mm WeatherDisplay:10.37 W/m2 CLR
16:24 16.6 °C 6.4 °C 1010.7 hPa ESE 5.6 km/h 5.6 km/h 51% 0 mm WeatherDisplay:10.37 W/m2 CLR
16:29 16.6 °C 6.7 °C 1010.4 hPa ESE 3.7 km/h 3.7 km/h 52% 0 mm WeatherDisplay:10.37 W/m2 CLR
16:34 16.7 °C 6.5 °C 1010.7 hPa ESE 3.7 km/h 3.7 km/h 51% 0 mm WeatherDisplay:10.37 W/m2 CLR
16:39 16.6 °C 6.4 °C 1010.7 hPa East 5.6 km/h 5.6 km/h 51% 0 mm WeatherDisplay:10.37 W/m2 CLR
16:44 16.6 °C 6.1 °C 1010.4 hPa East 5.6 km/h 5.6 km/h 50% 0 mm WeatherDisplay:10.37 W/m2 CLR
16:49 16.6 °C 6.4 °C 1010.7 hPa ESE 7.4 km/h 7.4 km/h 51% 0 mm WeatherDisplay:10.37 W/m2 CLR
16:54 16.6 °C 6.4 °C 1010.4 hPa ESE 5.6 km/h 5.6 km/h 51% 0 mm WeatherDisplay:10.37 W/m2 CLR
16:59 16.6 °C 6.4 °C 1010.4 hPa Calm     51% 0 mm WeatherDisplay:10.37 W/m2 CLR
17:04 16.6 °C 6.1 °C 1010.7 hPa ESE 7.4 km/h 7.4 km/h 50% 0 mm WeatherDisplay:10.37 W/m2 CLR
17:09 16.6 °C 5.8 °C 1010.7 hPa ESE 1.9 km/h 1.9 km/h 49% 0 mm WeatherDisplay:10.37 W/m2 CLR
17:14 16.6 °C 6.1 °C 1010.7 hPa ESE 3.7 km/h 3.7 km/h 50% 0 mm WeatherDisplay:10.37 W/m2 CLR
17:19 16.6 °C 5.8 °C 1010.4 hPa ESE 1.9 km/h   49% 0 mm WeatherDisplay:10.37 W/m2 CLR
17:24 16.5 °C 6.1 °C 1010.7 hPa ESE 3.7 km/h 3.9 km/h 50% 0 mm WeatherDisplay:10.37 W/m2 CLR
17:29 16.5 °C 6.1 °C 1010.7 hPa East 5.6 km/h 5.6 km/h 50% 0 mm WeatherDisplay:10.37 W/m2 CLR
17:34 16.4 °C 6.3 °C 1010.7 hPa Calm     51% 0 mm WeatherDisplay:10.37 W/m2 CLR
17:39 16.4 °C 5.9 °C 1010.7 hPa East 3.7 km/h 3.7 km/h 50% 0 mm WeatherDisplay:10.37 W/m2 CLR
17:44 16.3 °C 6.2 °C 1010.7 hPa East 1.6 km/h   51% 0 mm WeatherDisplay:10.37 W/m2 CLR
17:49 16.2 °C 6.1 °C 1010.7 hPa East 1.9 km/h   51% 0 mm WeatherDisplay:10.37 W/m2 CLR
17:54 16.2 °C 6.3 °C 1010.7 hPa Calm     52% 0 mm WeatherDisplay:10.37 W/m2 CLR
17:59 16.1 °C 6.2 °C 1010.7 hPa Calm     52% 0 mm WeatherDisplay:10.37 W/m2 CLR
18:04 15.9 °C 6.1 °C 1010.7 hPa Calm     52% 0 mm WeatherDisplay:10.37 W/m2 CLR
18:09 15.7 °C 5.8 °C 1011.1 hPa Calm     52% 0 mm WeatherDisplay:10.37 W/m2 CLR
18:14 15.4 °C 5.8 °C 1011.1 hPa Calm     53% 0 mm WeatherDisplay:10.37 W/m2 CLR
18:20 15.1 °C 6.1 °C 1011.1 hPa Calm     55% 0 mm WeatherDisplay:10.37 W/m2 CLR
18:25 15 °C 6.3 °C 1011.1 hPa Calm     56% 0 mm WeatherDisplay:10.37 W/m2 CLR
18:30 14.7 °C 6 °C 1011.4 hPa Calm     56% 0 mm WeatherDisplay:10.37 W/m2 CLR
18:35 14.4 °C 5.8 °C 1011.4 hPa Calm     56% 0 mm WeatherDisplay:10.37 W/m2 CLR
18:40 14.2 °C 6 °C 1011.7 hPa Calm     58% 0 mm WeatherDisplay:10.37 W/m2 CLR
18:45 13.9 °C 5.8 °C 1011.7 hPa Calm     58% 0 mm WeatherDisplay:10.37 W/m2 CLR
18:50 13.6 °C 5.7 °C 1011.4 hPa Calm     59% 0 mm WeatherDisplay:10.37 W/m2 CLR
18:55 13.4 °C 5.8 °C 1012.1 hPa Calm     60% 0 mm WeatherDisplay:10.37 W/m2 CLR
19:00 13.1 °C 5.7 °C 1012.1 hPa Calm     61% 0 mm WeatherDisplay:10.37 W/m2 CLR
19:05 12.8 °C 5.9 °C 1011.7 hPa Calm     63% 0 mm WeatherDisplay:10.37 W/m2 CLR
19:10 12.4 °C 5.8 °C 1011.7 hPa Calm     64% 0 mm WeatherDisplay:10.37 W/m2 CLR
19:15 12.1 °C 5.7 °C 1012.1 hPa Calm     65% 0 mm WeatherDisplay:10.37 W/m2 CLR
19:20 11.8 °C 5.7 °C 1012.1 hPa Calm     66% 0 mm WeatherDisplay:10.37 W/m2 CLR
19:25 11.6 °C 5.7 °C 1012.1 hPa Calm     67% 0 mm WeatherDisplay:10.37 W/m2 CLR
19:30 11.3 °C 5.8 °C 1012.1 hPa Calm     69% 0 mm WeatherDisplay:10.37 W/m2 CLR
19:35 11.1 °C 5.8 °C 1012.8 hPa Calm     70% 0 mm WeatherDisplay:10.37 W/m2 CLR
19:40 10.9 °C 5.8 °C 1012.8 hPa Calm     71% 0 mm WeatherDisplay:10.37 W/m2 CLR
19:45 10.7 °C 5.9 °C 1012.4 hPa Calm     72% 0 mm WeatherDisplay:10.37 W/m2 CLR
19:50 10.6 °C 5.7 °C 1012.4 hPa Calm     72% 0 mm WeatherDisplay:10.37 W/m2 CLR
19:55 10.4 °C 5.8 °C 1012.4 hPa East 1.9 km/h 1.9 km/h 73% 0 mm WeatherDisplay:10.37 W/m2 CLR
20:00 10.4 °C 5.8 °C 1012.4 hPa East 1.9 km/h   73% 0 mm WeatherDisplay:10.37 W/m2 CLR
20:05 10.4 °C 5.8 °C 1011.1 hPa Calm     73% 0 mm WeatherDisplay:10.37 W/m2 CLR
20:10 10.3 °C 5.7 °C 1011.1 hPa Calm     73% 0 mm WeatherDisplay:10.37 W/m2 CLR
20:15 10.3 °C 5.7 °C 1011.1 hPa Calm     73% 0 mm WeatherDisplay:10.37 W/m2 CLR
20:20 10.2 °C 5.8 °C 1011.1 hPa Calm     74% 0 mm WeatherDisplay:10.37 W/m2 CLR
20:25 10.1 °C 5.7 °C 1011.1 hPa Calm     74% 0 mm WeatherDisplay:10.37 W/m2 CLR
20:30 9.9 °C 5.3 °C 1011.1 hPa Calm     73% 0 mm WeatherDisplay:10.37 W/m2 CLR
20:35 9.6 °C 5.2 °C 1011.4 hPa Calm     74% 0 mm WeatherDisplay:10.37 W/m2 CLR
20:40 9.3 °C 5.3 °C 1011.4 hPa Calm     76% 0 mm WeatherDisplay:10.37 W/m2 CLR
20:45 9.2 °C 5.4 °C 1011.4 hPa Calm     77% 0 mm WeatherDisplay:10.37 W/m2 CLR
20:50 9.2 °C 5.2 °C 1011.4 hPa Calm     76% 0 mm WeatherDisplay:10.37 W/m2 CLR
20:55 9 °C 5.2 °C 1011.4 hPa Calm     77% 0 mm WeatherDisplay:10.37 W/m2 CLR
20:58 8.9 °C 5.3 °C 1011.4 hPa Calm     78% 0 mm WeatherDisplay:10.37 W/m2 CLR
21:00 8.9 °C 5.4 °C 1011.4 hPa Calm     79% 0 mm WeatherDisplay:10.37 W/m2 CLR
21:05 8.8 °C 5.4 °C 1011.1 hPa Calm     79% 0 mm WeatherDisplay:10.37 W/m2 CLR
21:10 8.8 °C 5.5 °C 1011.1 hPa Calm     80% 0 mm WeatherDisplay:10.37 W/m2 CLR
21:15 8.7 °C 5.7 °C 1011.1 hPa Calm     81% 0 mm WeatherDisplay:10.37 W/m2 CLR
21:20 8.7 °C 5.7 °C 1011.1 hPa Calm     81% 0 mm WeatherDisplay:10.37 W/m2 CLR
21:22 8.7 °C 5.7 °C 1011.1 hPa Calm     81% 0 mm WeatherDisplay:10.37 W/m2 CLR
21:27 8.7 °C 5.8 °C 1011.1 hPa Calm     82% 0 mm WeatherDisplay:10.37 W/m2 CLR
21:32 8.7 °C 5.8 °C 1011.1 hPa Calm     82% 0 mm WeatherDisplay:10.37 W/m2 CLR
21:37 8.7 °C 5.8 °C 1011.1 hPa Calm     82% 0 mm WeatherDisplay:10.37 W/m2 CLR
21:42 8.8 °C 5.9 °C 1011.1 hPa North 3.7 km/h 3.7 km/h 82% 0 mm WeatherDisplay:10.37 W/m2 CLR
21:47 8.9 °C 5.8 °C 1011.1 hPa Calm     81% 0 mm WeatherDisplay:10.37 W/m2 CLR
21:52 9 °C 5.9 °C 1011.1 hPa Calm   0.2 km/h 81% 0 mm WeatherDisplay:10.37 W/m2 CLR
21:57 9.1 °C 5.9 °C 1011.1 hPa North 1.9 km/h 1.9 km/h 81% 0 mm WeatherDisplay:10.37 W/m2 CLR
22:02 9.1 °C 6 °C 1010.4 hPa North 1.9 km/h 1.9 km/h 81% 0 mm WeatherDisplay:10.37 W/m2 CLR
22:07 9.1 °C 5.9 °C 1010.4 hPa Calm     81% 0 mm WeatherDisplay:10.37 W/m2 CLR
22:12 9.1 °C 5.9 °C 1010.4 hPa North 1.9 km/h 1.9 km/h 81% 0 mm WeatherDisplay:10.37 W/m2 CLR
22:17 9 °C 5.9 °C 1010.4 hPa WNW 1.9 km/h   81% 0 mm WeatherDisplay:10.37 W/m2 CLR
22:22 9 °C 5.9 °C 1010 hPa NW 1.9 km/h 1.9 km/h 81% 0 mm WeatherDisplay:10.37 W/m2 CLR
22:27 8.9 °C 5.7 °C 1010 hPa Calm     80% 0 mm WeatherDisplay:10.37 W/m2 CLR
22:32 8.9 °C 5.6 °C 1010 hPa NW 3.2 km/h 3.2 km/h 80% 0 mm WeatherDisplay:10.37 W/m2 CLR
22:37 8.9 °C 5.6 °C 1010 hPa NW 1.9 km/h 1.9 km/h 80% 0 mm WeatherDisplay:10.37 W/m2 CLR
22:42 8.8 °C 5.6 °C 1010 hPa NW 1.9 km/h 1.9 km/h 80% 0 mm WeatherDisplay:10.37 W/m2 CLR
22:47 8.8 °C 5.3 °C 1009.7 hPa Calm     79% 0 mm WeatherDisplay:10.37 W/m2 CLR
22:52 8.7 °C 5.3 °C 1009.7 hPa NW 1.9 km/h 1.9 km/h 79% 0 mm WeatherDisplay:10.37 W/m2 CLR
22:57 8.6 °C 5.2 °C 1009.7 hPa Calm     79% 0 mm WeatherDisplay:10.37 W/m2 CLR
23:02 8.4 °C 5 °C 1009.4 hPa Calm     79% 0 mm WeatherDisplay:10.37 W/m2 CLR
23:07 8.3 °C 5.1 °C 1009.4 hPa NW 1.9 km/h 1.9 km/h 80% 0 mm WeatherDisplay:10.37 W/m2 CLR
23:12 8.2 °C 5 °C 1009.4 hPa Calm     80% 0 mm WeatherDisplay:10.37 W/m2 CLR
23:17 8.1 °C 4.9 °C 1009 hPa Calm     80% 0 mm WeatherDisplay:10.37 W/m2 CLR
23:22 8.1 °C 5 °C 1009 hPa Calm     81% 0 mm WeatherDisplay:10.37 W/m2 CLR
23:27 8 °C 5.1 °C 1009 hPa NW 1.9 km/h   82% 0 mm WeatherDisplay:10.37 W/m2 CLR
23:32 8 °C 4.9 °C 1009.4 hPa Calm     81% 0 mm WeatherDisplay:10.37 W/m2 CLR
23:37 7.9 °C 5.1 °C 1009.4 hPa Calm     82% 0 mm WeatherDisplay:10.37 W/m2 CLR
23:42 7.8 °C 4.8 °C 1009 hPa Calm     81% 0 mm WeatherDisplay:10.37 W/m2 CLR
23:47 7.7 °C 4.6 °C 1009.4 hPa Calm     81% 0 mm WeatherDisplay:10.37 W/m2 CLR
23:52 7.5 °C 4.6 °C 1009 hPa Calm     82% 0 mm WeatherDisplay:10.37 W/m2 CLR
23:57 7.3 °C 4.4 °C 1009 hPa Calm     82% 0 mm WeatherDisplay:10.37 W/m2 CLR
Windsor Co Weather
Compliments of Weather Underground - 3 mb